Weather in Purpe-1

Russia / Yamalo-Nenets Autonomous Okrug     64°34′26″N   77°00′54″E
temp.,
°C
wind,
m/s
gust,
m/s
humid.,
%
clouds,
%
prec.,
mm/h
press.,
hPa
HPBL,
m
5 march, fri
fri523:00−10sse61194100 0.1 997224
02:00−10se5894100 0.2 996185
05:00−10se5995100 0.5 996204
08:00−9se5895100 0.4 995246
11:00−7sse4693100 0.6 995279
14:00−7sse3492100 0.2 994293
17:00−8s239599 0.3 99621
20:00−10ssw339598 0.0 99621
6 march, sat
sat623:00−11w239596 0.1 99721
02:00−15w1110097 0.0 99720
05:00−12w129699 0.3 99721
08:00−12wsw1195100 0.3 99720
11:00−10nw0090100 0.4 997175
14:00−9n2290100 0.1 997243
17:00−13n239698 0.1 99720
20:00−15nnw339894 0.0 99720
7 march, sun
sun723:00−16nw449894 0.1 99724
02:00−16nw559792 0.1 99857
05:00−16nw579695 0.1 1000110
08:00−20nw459895 0.0 100171
11:00−17nw569494 0.1 1003238
14:00−16wnw459273 0.0 1005251
17:00−19wnw339569 0.0 100720
20:00−19wsw239696 0.0 100820
8 march, mon
mon823:00−19sw239990 0.1 100920
02:00−18ssw229795 0.1 100921
05:00−19s239897 0.2 100821
08:00−18s3397100 0.1 1007105
11:00−16sse229197 0.1 1005235
14:00−15ene2389100 0.1 1003306
17:00−18ne349799 0.1 100127
20:00−19n459896 0.1 100186
9 march, tue
tue923:00−21n589997 0.1 1001130
02:00−22nnw71097100 0.1 999249
05:00−25nw61097100 0.3 1002257
08:00−28nw7995100 0.1 1005296
11:00−29wnw799296 0.1 1007324
14:00−29wnw689024 0.0 1010336
17:00−33wnw449315 0.0 101227
20:00−36w33950 0.0 101319